Location: Unspecified
(0.0000°N, 0.0000°E)
Time: 19:07:19
(UTC+00:00)

Tiros 1 despin weight - Pass Details

Date: 21 November 2019
Orbit: 594 x 642 km, 48.2° (Epoch: 08 December)

Event Time Altitude Azimuth Distance (km) Brightness Sun altitude
Rises 09:32:58 0° 228° (SW) 2,860 ? 51.9°
Reaches altitude 10° 09:35:20 10° 234° (SW) 1,947 ? 52.4°
Maximum altitude 09:39:39 49° 309° (NW) 772 ? 53.3°
Drops below altitude 10° 09:43:55 10° 24° (NNE) 1,918 ? 54.1°
Sets 09:46:14 0° 30° (NNE) 2,814 ? 54.6°
